OCN4EK EDDF-LDSP

Flight info

Callsign OCN4EK
Flight time N/A
Altitude 35000
Route CINDY6F CINDY Z74 LAMPU DCT NOMBO Y161 RIDAR/N0439F370 Y161 MAH DCT VAVOR DCT RADIZ DCT ALIVO DCT NUPSO
Aircraft A320/M-SDE2E3FGIJ1LORWXYZ/HB1

Departure

Time 2026-05-07 14:44
Airport Frankfurt Main Airport (EDDF)

Arrival

Time N/A
Airport Split Saint Jerome Airport (LDSP)
Time Latitude Longitude Altitude Speed Heading
2026-05-07 14:11 50.04830 8.58837 365 ft 0 kts 339°
2026-05-07 14:29 50.04808 8.58849 368 ft 4 kts 339°
2026-05-07 14:29 50.04783 8.58864 367 ft 4 kts 339°
2026-05-07 14:29 50.04766 8.58874 368 ft 4 kts 339°
2026-05-07 14:29 50.04760 8.58877 368 ft 2 kts 339°
2026-05-07 14:33 50.04761 8.58877 368 ft 0 kts 340°
2026-05-07 14:34 50.04781 8.58897 369 ft 7 kts 62°
2026-05-07 14:34 50.04778 8.58974 368 ft 6 kts 84°
2026-05-07 14:34 50.04793 8.59043 374 ft 8 kts 69°
2026-05-07 14:34 50.04815 8.59138 368 ft 11 kts 70°
2026-05-07 14:35 50.04844 8.59258 368 ft 12 kts 69°
2026-05-07 14:35 50.04871 8.59376 373 ft 11 kts 77°
2026-05-07 14:35 50.04850 8.59469 371 ft 10 kts 136°
2026-05-07 14:35 50.04778 8.59561 371 ft 15 kts 145°
2026-05-07 14:36 50.04699 8.59610 374 ft 12 kts 168°
2026-05-07 14:36 50.04592 8.59620 375 ft 18 kts 178°
2026-05-07 14:36 50.04454 8.59628 376 ft 21 kts 177°
2026-05-07 14:36 50.04302 8.59637 376 ft 23 kts 178°
2026-05-07 14:37 50.04141 8.59600 375 ft 24 kts 199°
2026-05-07 14:37 50.03865 8.59269 370 ft 28 kts 245°
2026-05-07 14:37 50.03798 8.58983 365 ft 29 kts 250°
2026-05-07 14:38 50.03727 8.58689 364 ft 29 kts 249°
2026-05-07 14:38 50.03665 8.58424 358 ft 25 kts 250°
2026-05-07 14:38 50.03605 8.58171 362 ft 25 kts 249°
2026-05-07 14:38 50.03545 8.57920 362 ft 25 kts 249°
2026-05-07 14:39 50.03481 8.57650 357 ft 27 kts 250°
2026-05-07 14:39 50.03416 8.57380 360 ft 27 kts 250°
2026-05-07 14:39 50.03350 8.57101 357 ft 28 kts 250°
2026-05-07 14:39 50.03282 8.56818 359 ft 28 kts 250°
2026-05-07 14:40 50.03213 8.56523 351 ft 29 kts 249°
2026-05-07 14:40 50.03142 8.56230 355 ft 29 kts 250°
2026-05-07 14:40 50.03071 8.55929 353 ft 30 kts 250°
2026-05-07 14:40 50.03000 8.55630 352 ft 29 kts 249°
2026-05-07 14:41 50.02928 8.55335 352 ft 29 kts 250°
2026-05-07 14:41 50.02858 8.55042 353 ft 29 kts 250°
2026-05-07 14:41 50.02787 8.54745 339 ft 29 kts 249°
2026-05-07 14:41 50.02716 8.54451 338 ft 29 kts 249°
2026-05-07 14:42 50.02655 8.54150 335 ft 30 kts 250°
2026-05-07 14:42 50.02582 8.53846 332 ft 30 kts 250°
2026-05-07 14:42 50.02511 8.53548 334 ft 29 kts 250°
2026-05-07 14:42 50.02442 8.53257 336 ft 29 kts 249°
2026-05-07 14:43 50.02372 8.52965 334 ft 27 kts 250°
2026-05-07 14:43 50.02323 8.52766 331 ft 12 kts 249°
2026-05-07 14:43 50.02293 8.52640 332 ft 10 kts 249°
2026-05-07 14:43 50.02230 8.52606 335 ft 12 kts 179°
2026-05-07 14:44 50.01981 8.52606 335 ft 71 kts 179°
2026-05-07 14:44 50.01261 8.52616 333 ft 133 kts 179°
2026-05-07 14:44 50.00197 8.52614 574 ft 160 kts 182°
2026-05-07 14:44 49.99092 8.52623 1324 ft 159 kts 180°
2026-05-07 14:45 49.97946 8.52645 1843 ft 174 kts 177°
2026-05-07 14:45 49.96739 8.53189 2296 ft 190 kts 144°
2026-05-07 14:45 49.95818 8.54754 2736 ft 207 kts 117°
2026-05-07 14:45 49.95137 8.56853 3119 ft 228 kts 116°
2026-05-07 14:46 49.94391 8.59088 3877 ft 234 kts 112°
2026-05-07 14:46 49.94009 8.61584 4578 ft 247 kts 93°
2026-05-07 14:46 49.93903 8.64358 5094 ft 268 kts 92°
2026-05-07 14:46 49.93573 8.67246 5877 ft 277 kts 109°
2026-05-07 14:47 49.92703 8.69929 6772 ft 281 kts 126°
2026-05-07 14:47 49.91371 8.72152 7623 ft 283 kts 142°
2026-05-07 14:47 49.89768 8.73961 8443 ft 288 kts 143°
2026-05-07 14:47 49.88324 8.76145 9283 ft 294 kts 128°
2026-05-07 14:48 49.87226 8.78838 10116 ft 298 kts 118°
2026-05-07 14:48 49.86187 8.81735 10524 ft 319 kts 119°
2026-05-07 14:48 49.85073 8.84822 10947 ft 335 kts 119°
2026-05-07 14:49 49.84588 8.86354 11604 ft 320 kts 114°
2026-05-07 14:49 49.83582 8.89551 12199 ft 335 kts 118°
2026-05-07 14:49 49.82420 8.92751 12764 ft 345 kts 120°
2026-05-07 14:50 49.81187 8.95966 13500 ft 349 kts 121°
2026-05-07 14:50 49.79930 8.99212 14202 ft 353 kts 121°
2026-05-07 14:50 49.78672 9.02497 14860 ft 357 kts 120°
2026-05-07 14:50 49.77416 9.05836 15516 ft 361 kts 120°
2026-05-07 14:51 49.76281 9.09321 16135 ft 365 kts 111°
2026-05-07 14:51 49.75566 9.13110 16758 ft 370 kts 103°
2026-05-07 14:51 49.74803 9.16921 17385 ft 373 kts 113°
2026-05-07 14:51 49.73572 9.20465 17985 ft 377 kts 125°
2026-05-07 14:52 49.72211 9.23143 18482 ft 379 kts 132°
2026-05-07 14:52 49.70462 9.26220 19042 ft 382 kts 132°
2026-05-07 14:52 49.68705 9.29318 19611 ft 385 kts 132°
2026-05-07 14:52 49.66935 9.32443 20186 ft 388 kts 132°
2026-05-07 14:53 49.65154 9.35587 20738 ft 390 kts 132°
2026-05-07 14:53 49.63361 9.38744 21297 ft 393 kts 133°
2026-05-07 14:53 49.61374 9.41640 21819 ft 394 kts 143°
2026-05-07 14:53 49.59125 9.43948 22337 ft 395 kts 151°
2026-05-07 14:54 49.56713 9.46138 22847 ft 398 kts 151°
2026-05-07 14:54 49.54346 9.48293 23306 ft 403 kts 151°
2026-05-07 14:54 49.51893 9.50531 23764 ft 406 kts 151°
2026-05-07 14:54 49.49456 9.52753 24183 ft 408 kts 151°
2026-05-07 14:55 49.47009 9.54986 24605 ft 411 kts 151°
2026-05-07 14:55 49.44575 9.57204 25020 ft 413 kts 151°
2026-05-07 14:55 49.42094 9.59459 25434 ft 415 kts 151°
2026-05-07 14:55 49.39603 9.61722 25841 ft 418 kts 151°
2026-05-07 14:56 49.37097 9.64000 26250 ft 420 kts 151°
2026-05-07 14:56 49.34614 9.66391 26648 ft 423 kts 145°
2026-05-07 14:56 49.32361 9.69322 27030 ft 428 kts 136°
2026-05-07 14:56 49.30259 9.72558 27419 ft 430 kts 136°
2026-05-07 14:57 49.28138 9.75810 27811 ft 432 kts 137°
2026-05-07 14:57 49.26007 9.79059 28185 ft 434 kts 137°
2026-05-07 14:57 49.23861 9.82321 28552 ft 436 kts 136°
2026-05-07 14:57 49.21693 9.85609 28859 ft 440 kts 136°
2026-05-07 14:58 49.19515 9.88913 29210 ft 442 kts 136°
2026-05-07 14:58 49.17323 9.92234 29579 ft 445 kts 136°
2026-05-07 14:58 49.15124 9.95565 29953 ft 447 kts 136°
2026-05-07 14:58 49.12911 9.98916 30273 ft 449 kts 136°
2026-05-07 14:59 49.10691 10.02279 30552 ft 450 kts 136°
2026-05-07 14:59 49.08462 10.05643 30813 ft 452 kts 136°
2026-05-07 14:59 49.06217 10.09020 31084 ft 454 kts 137°
2026-05-07 14:59 49.03941 10.12364 31355 ft 456 kts 138°
2026-05-07 15:00 49.01621 10.15671 31641 ft 456 kts 139°
2026-05-07 15:00 48.99286 10.18938 31983 ft 456 kts 139°
2026-05-07 15:00 48.96941 10.22195 32343 ft 456 kts 139°
2026-05-07 15:00 48.94602 10.25450 32744 ft 456 kts 139°
2026-05-07 15:01 48.92301 10.28672 33114 ft 455 kts 139°
2026-05-07 15:01 48.89980 10.31940 33491 ft 455 kts 139°
2026-05-07 15:01 48.87664 10.35209 33861 ft 454 kts 139°
2026-05-07 15:01 48.85349 10.38473 34221 ft 454 kts 139°
2026-05-07 15:02 48.83036 10.41731 34532 ft 453 kts 139°
2026-05-07 15:02 48.80770 10.45070 34788 ft 454 kts 136°
2026-05-07 15:02 48.78571 10.48516 34992 ft 456 kts 135°
2026-05-07 15:02 48.76418 10.52029 35039 ft 451 kts 134°
2026-05-07 15:03 48.72215 10.58993 35052 ft 446 kts 135°
2026-05-07 15:03 48.67978 10.65845 35051 ft 445 kts 136°
2026-05-07 15:04 48.63708 10.72614 35045 ft 445 kts 136°
2026-05-07 15:04 48.59429 10.79367 35042 ft 445 kts 136°